This is the latest recevied weather packets stored in our database for station/object W5ZYX. If no packets are shown the sender has not sent any weather packets the latest 10 day(s).
| Time | Temp. | Humidity | Pressure | Rain* | Wind** | Luminosity | Snow |
|---|---|---|---|---|---|---|---|
| 1778100636 | 23.33° C | 84% | 1010.7 hPa | 0 mm | - | - | - |
| 1778100347 | 23.89° C | 83% | 1010.7 hPa | 0 mm | - | - | - |
| 1778100039 | 23.89° C | 82% | 1010.8 hPa | 0 mm | - | - | - |
| 1778099736 | 23.89° C | 82% | 1010.8 hPa | 0 mm | - | - | - |
| 1778099453 | 23.89° C | 81% | 1010.8 hPa | 0 mm | - | - | - |
| 1778099139 | 23.89° C | 82% | 1010.8 hPa | 0 mm | - | - | - |
| 1778098840 | 23.89° C | 80% | 1010.9 hPa | 0 mm | - | - | - |
| 1778098547 | 24.44° C | 80% | 1010.8 hPa | 0 mm | - | - | - |
| 1778098236 | 24.44° C | 81% | 1010.7 hPa | 0 mm | - | - | - |
| 1778097938 | 24.44° C | 82% | 1010.6 hPa | 0 mm | - | - | - |
| 1778097646 | 24.44° C | 84% | 1010.5 hPa | 0 mm | - | - | - |
| 1778097337 | 23.89° C | 83% | 1010.4 hPa | 0 mm | - | - | - |
| 1778097036 | 23.89° C | 83% | 1010.5 hPa | 0 mm | - | - | - |
| 1778096749 | 23.33° C | 83% | 1010.5 hPa | 0 mm | - | - | - |
| 1778096439 | 23.33° C | 83% | 1010.5 hPa | 0 mm | - | - | - |
| 1778096140 | 23.33° C | 83% | 1010.6 hPa | 0 mm | - | - | - |
| 1778095854 | 22.78° C | 83% | 1010.4 hPa | 0 mm | - | - | - |
| 1778095536 | 22.78° C | 82% | 1010.3 hPa | 0 mm | - | - | - |
| 1778095236 | 22.78° C | 83% | 1010.6 hPa | 0 mm | - | - | - |
| 1778094960 | 22.22° C | 83% | 1010.8 hPa | 0 mm | - | - | - |
| 1778094637 | 22.22° C | 84% | 1010.9 hPa | 0 mm | - | - | - |
| 1778094337 | 21.67° C | 84% | 1010.9 hPa | 0 mm | - | - | - |
| 1778094053 | 21.67° C | 84% | 1011 hPa | 0 mm | - | - | - |
| 1778093741 | 21.11° C | 84% | 1011 hPa | 0 mm | - | - | - |
| 1778093438 | 21.11° C | 84% | 1011.2 hPa | 0 mm | - | - | - |
* Rain latest hour (hover to see other rain measurements)
** Current wind speed in m/s (hover to see current wind gust speed)